sat.trackr.live / text

‹ back to catalog

STARLINK-4059

NORAD 53250 · 2022-086J

PAYLOAD ACTIVE UNKNOWN

§ Identity

Operator
Country
US
Launch date
2022-07-24
Launch site
AFETR
Launch vehicle
Mass (kg)
RCS (m²)

Purposes: comms

External: N2YO · Heavens-Above · Gunter

§ Orbital elements

Epoch: 2026-05-25T03:42:15.864192Z

Period
95.44 min
Inclination
53.2126°
Eccentricity
0.0001121
Mean motion
15.08836033 rev/d
Perigee alt
539.0 km
Apogee alt
540.5 km
Semi-major
6,917.9 km
B*
3.5000e-5
RAAN
210.8581°
Arg perigee
97.8399°
Mean anomaly
262.2721°
Rev number
21,261

§ Raw data

STARLINK-40591 53250U 22086J   26145.15435028  .00000269  00000+0  35000-4 0  99972 53250  53.2126 210.8581 0001121  97.8399 262.2721 15.08836033212612

JSON: /api/v1/satellites/53250 · /tle

For live sub-satellite position, see the globe view (requires WebGL).

§ Visibility from observer

Set your observer location to see the next 7 days of passes ≥ 10°. The values pass through the URL so the page stays shareable.

No JS? Fill the form by hand. The geolocation button needs JavaScript.